Volver al catálogo

STARLINK-35499

ActivoComunicacionesVLEO
NORAD 66462·PAYLOAD·🇺🇸 United States

Lanzado Nov 15, 2025 desde Cape Canaveral Space Force Station

Loading…

Próximos Pases (próximas 24 horas)

TLE

ActualizadoSource: CelesTrak SupGP

Época: Sep 14, 2026, 21:19 UTC

1 66462C 25262G   26257.88868056 -.00013591  00000+0 -49229-3 0  2578
2 66462  43.0019 307.3905 0001732 266.6603 152.7131 15.27583901    14

Sigue STARLINK-35499 en tiempo real con AllMySat

Download on the App Store